When you browse on this site, cookies collect data to enhance your experience and personalize the content and advertising you see.
Visit our Privacy Policy to learn more. By continuing to use the site, you agree to this use of cookies and data.

Hourly Weather Ottawa

Today, 20 September, Sunday

Time Temperature Precipitation Wind Pressure Humidity
00:00 +6°C° 0 mm 1 mps 765 mmHg 67%
01:00 +5°C° 0 mm 1 mps 765 mmHg 71%
02:00 +4°C° 0 mm 0 mps 765 mmHg 73%
03:00 +3°C° 0 mm 0 mps 765 mmHg 74%
04:00 +3°C° 0 mm 0 mps 765 mmHg 76%
05:00 +3°C° 0 mm 0 mps 766 mmHg 75%
06:00 +4°C° 0 mm 0 mps 766 mmHg 74%
07:00 +5°C° 0 mm 0 mps 767 mmHg 73%
08:00 +7°C° 0 mm 0 mps 767 mmHg 67%
09:00 +10°C° 0 mm 0 mps 767 mmHg 60%
10:00 +12°C° 0 mm 0 mps 767 mmHg 54%
11:00 +13°C° 0 mm 0 mps 767 mmHg 51%
12:00 +14°C° 0 mm 0 mps 767 mmHg 48%
13:00 +15°C° 0 mm 0 mps 767 mmHg 45%
14:00 +16°C° 0 mm 1 mps 766 mmHg 46%
15:00 +15°C° 0 mm 1 mps 766 mmHg 47%
16:00 +15°C° 0 mm 1 mps 766 mmHg 48%
17:00 +13°C° 0 mm 1 mps 766 mmHg 54%
18:00 +11°C° 0 mm 1 mps 766 mmHg 60%
19:00 +9°C° 0 mm 1 mps 767 mmHg 66%
20:00 +8°C° 0 mm 1 mps 767 mmHg 68%
21:00 +7°C° 0 mm 1 mps 767 mmHg 71%
22:00 +7°C° 0 mm 1 mps 767 mmHg 73%
23:00 +6°C° 0 mm 1 mps 767 mmHg 75%

Tomorrow, 21 September, Monday

Time Temperature Precipitation Wind Pressure Humidity
00:00 +6°C° 0 mm 1 mps 767 mmHg 78%
01:00 +5°C° 0 mm 1 mps 768 mmHg 80%
02:00 +5°C° 0 mm 1 mps 767 mmHg 82%
03:00 +3°C° 0 mm 0 mps 767 mmHg 83%
04:00 +3°C° 0 mm 0 mps 767 mmHg 85%
05:00 +4°C° 0 mm 0 mps 768 mmHg 83%
06:00 +5°C° 0 mm 1 mps 768 mmHg 80%
07:00 +6°C° 0 mm 1 mps 768 mmHg 77%
08:00 +9°C° 0 mm 1 mps 768 mmHg 70%
09:00 +11°C° 0 mm 1 mps 767 mmHg 64%
10:00 +13°C° 0 mm 2 mps 767 mmHg 57%
11:00 +14°C° 0 mm 2 mps 767 mmHg 53%
12:00 +16°C° 0 mm 2 mps 766 mmHg 50%
13:00 +17°C° 0 mm 2 mps 766 mmHg 46%
14:00 +17°C° 0 mm 2 mps 765 mmHg 48%
15:00 +18°C° 0 mm 1 mps 764 mmHg 49%
16:00 +18°C° 0 mm 1 mps 764 mmHg 50%
17:00 +15°C° 0 mm 1 mps 764 mmHg 55%
18:00 +12°C° 0 mm 2 mps 763 mmHg 61%
19:00 +9°C° 0 mm 2 mps 763 mmHg 66%
20:00 +9°C° 0 mm 1 mps 763 mmHg 70%
21:00 +9°C° 0 mm 1 mps 763 mmHg 73%
22:00 +8°C° 0 mm 1 mps 763 mmHg 76%
23:00 +7°C° 0 mm 1 mps 763 mmHg 79%

Day after tomorrow, 22 September, Tuesday

Time Temperature Precipitation Wind Pressure Humidity
00:00 +7°C° 0 mm 1 mps 762 mmHg 81%
01:00 +6°C° 0 mm 1 mps 762 mmHg 84%
02:00 +6°C° 0 mm 1 mps 762 mmHg 85%
03:00 +4°C° 0 mm 0 mps 761 mmHg 85%
04:00 +4°C° 0 mm 0 mps 761 mmHg 85%
05:00 +5°C° 0 mm 0 mps 761 mmHg 83%
06:00 +6°C° 0 mm 0 mps 761 mmHg 81%
07:00 +6°C° 0 mm 0 mps 761 mmHg 78%
08:00 +9°C° 0 mm 0 mps 760 mmHg 71%
09:00 +12°C° 0 mm 0 mps 759 mmHg 64%
10:00 +15°C° 0 mm 1 mps 758 mmHg 57%
11:00 +16°C° 0 mm 1 mps 757 mmHg 54%
12:00 +19°C° 0 mm 1 mps 757 mmHg 52%
13:00 +20°C° 0 mm 1 mps 756 mmHg 50%
14:00 +20°C° 0 mm 1 mps 755 mmHg 51%
15:00 +20°C° 0 mm 1 mps 754 mmHg 53%
16:00 +18°C° 0 mm 0 mps 753 mmHg 54%
17:00 +18°C° 0 mm 1 mps 753 mmHg 61%
18:00 +15°C° 0 mm 1 mps 753 mmHg 67%
19:00 +13°C° 0 mm 1 mps 753 mmHg 74%
20:00 +13°C° 0 mm 1 mps 753 mmHg 77%
21:00 +12°C° 0 mm 1 mps 752 mmHg 81%
22:00 +11°C° 0 mm 1 mps 752 mmHg 84%
23:00 +10°C° 0 mm 2 mps 752 mmHg 85%

23 September, Wednesday

Time Temperature Precipitation Wind Pressure Humidity
00:00 +10°C° 0 mm 2 mps 751 mmHg 86%
01:00 +10°C° 0 mm 2 mps 751 mmHg 87%
02:00 +10°C° 0 mm 2 mps 751 mmHg 90%
03:00 +10°C° 0 mm 2 mps 751 mmHg 93%
04:00 +9°C° 0 mm 2 mps 750 mmHg 95%
05:00 +10°C° 0 mm 3 mps 750 mmHg 95%
06:00 +10°C° 0 mm 3 mps 750 mmHg 94%
07:00 +11°C° 0 mm 3 mps 750 mmHg 94%
08:00 +12°C° 0 mm 3 mps 750 mmHg 90%
09:00 +14°C° 0 mm 3 mps 750 mmHg 86%
10:00 +17°C° 0 mm 4 mps 750 mmHg 83%
11:00 +17°C° 0 mm 4 mps 750 mmHg 80%
12:00 +18°C° 0 mm 3 mps 750 mmHg 78%
13:00 +19°C° 0 mm 3 mps 749 mmHg 75%
14:00 +19°C° 0 mm 3 mps 749 mmHg 73%
15:00 +20°C° 0 mm 3 mps 749 mmHg 71%
16:00 +21°C° 0 mm 3 mps 749 mmHg 69%
17:00 +19°C° 0 mm 3 mps 749 mmHg 74%
18:00 +17°C° 0 mm 2 mps 749 mmHg 79%
19:00 +16°C° 0 mm 2 mps 750 mmHg 84%
20:00 +15°C° 0 mm 2 mps 750 mmHg 86%
21:00 +14°C° 0 mm 2 mps 750 mmHg 87%
22:00 +13°C° 0 mm 1 mps 750 mmHg 88%
23:00 +13°C° 0 mm 1 mps 750 mmHg 89%

24 September, Thursday

Time Temperature Precipitation Wind Pressure Humidity
00:00 +12°C° 0 mm 1 mps 749 mmHg 90%
01:00 +12°C° 0 mm 1 mps 749 mmHg 91%
02:00 +12°C° 0 mm 1 mps 749 mmHg 92%
03:00 +12°C° 0 mm 1 mps 749 mmHg 93%
04:00 +12°C° 0 mm 1 mps 749 mmHg 94%
05:00 +13°C° 0 mm 2 mps 748 mmHg 93%
06:00 +13°C° 0 mm 2 mps 748 mmHg 92%
07:00 +13°C° 0 mm 3 mps 748 mmHg 92%
08:00 +17°C° 0 mm 4 mps 748 mmHg 85%
09:00 +19°C° 0 mm 4 mps 748 mmHg 78%
10:00 +22°C° 0 mm 5 mps 747 mmHg 71%
11:00 +23°C° 0 mm 5 mps 747 mmHg 66%
12:00 +23°C° 0 mm 6 mps 747 mmHg 61%
13:00 +24°C° 0 mm 6 mps 747 mmHg 56%
14:00 +23°C° 0 mm 5 mps 747 mmHg 65%
15:00 +21°C° 0 mm 4 mps 748 mmHg 73%
16:00 +20°C° 0 mm 3 mps 748 mmHg 82%
17:00 +18°C° 0.1 mm 3 mps 749 mmHg 81%
18:00 +17°C° 0.1 mm 3 mps 749 mmHg 81%
19:00 +14°C° 0.1 mm 4 mps 750 mmHg 81%
20:00 +13°C° 0 mm 4 mps 751 mmHg 79%
21:00 +13°C° 0 mm 4 mps 752 mmHg 78%
22:00 +12°C° 0 mm 4 mps 753 mmHg 77%
23:00 +10°C° 0 mm 3 mps 753 mmHg 77%

25 September, Friday

Time Temperature Precipitation Wind Pressure Humidity
00:00 +9°C° 0 mm 3 mps 753 mmHg 78%
01:00 +8°C° 0 mm 2 mps 754 mmHg 79%
02:00 +7°C° 0 mm 2 mps 754 mmHg 81%
03:00 +5°C° 0 mm 2 mps 755 mmHg 84%
04:00 +4°C° 0 mm 2 mps 755 mmHg 87%
05:00 +3°C° 0 mm 3 mps 756 mmHg 85%
06:00 +4°C° 0 mm 3 mps 756 mmHg 84%
07:00 +4°C° 0 mm 3 mps 757 mmHg 82%
08:00 +7°C° 0 mm 3 mps 757 mmHg 74%
09:00 +7°C° 0 mm 4 mps 757 mmHg 66%
10:00 +10°C° 0 mm 4 mps 757 mmHg 57%
11:00 +12°C° 0 mm 4 mps 756 mmHg 55%
12:00 +13°C° 0 mm 3 mps 756 mmHg 53%
13:00 +14°C° 0 mm 3 mps 756 mmHg 51%
14:00 +14°C° 0 mm 3 mps 755 mmHg 53%
15:00 +14°C° 0 mm 4 mps 755 mmHg 56%
16:00 +14°C° 0 mm 4 mps 755 mmHg 58%
17:00 +13°C° 0 mm 3 mps 755 mmHg 61%
18:00 +12°C° 0 mm 2 mps 755 mmHg 64%
19:00 +10°C° 0 mm 2 mps 755 mmHg 67%
20:00 +10°C° 0 mm 2 mps 754 mmHg 68%
21:00 +9°C° 0 mm 2 mps 754 mmHg 69%
22:00 +9°C° 0 mm 2 mps 754 mmHg 69%
23:00 +9°C° 0 mm 2 mps 754 mmHg 73%
Show more